Flag for U.S.A. Weather past 2 weeks in Pasco, Washington, U.S.A.

Now
65 °F

Clear.


Feels Like: 65 °F
Forecast: 62 / 80 °F
Wind: 5 mph from Southeast

Location: Tri-Cities Airport

Current Time: Sep 23, 2014 at 5:24:40 AM

Latest Report: Sep 23, 2014 at 4:53 AM


Visibility: 10 mi

Pressure: 29.84 "Hg

Humidity: 91%

Dew point: 62 °F

Location of PascoLocation

Historic Weather in Pasco — Graph

°F

Pasco temperature yesterday

Maximum temperature yesterday: 85 °F (at 3:53 PM)
Minimum temperature yesterday: 54 °F (at 4:53 AM)
Average temperature yesterday: 73 °F

Past Weeks' High & Low Weather Summary

 TemperatureHumidityPressure
High88 °F (Sep 8, 2:53 PM)97% (Sep 8, 5:53 AM)30.43 "Hg (Sep 8, 5:53 AM)
Low39 °F (Sep 13, 4:53 AM)13% (Sep 8, 3:53 PM)29.59 "Hg (Sep 17, 6:53 PM)
Average65 °F56%29.93 "Hg
* Reported Sep 8 3:53 AM — Sep 23 3:53 AM, Pasco, Weather by CustomWeather, © 2014

Note: Actual official high and low records may vary slightly from our data, if they occured in-between our weather recording intervals... More about our weather records

Advertising

Pasco weather history for previous 24 hours

 ConditionsComfort  
Time TempWeatherWind HumidityBarometerVisibility
3:53 AM
Sep 23
66 °FClear.3 mph87%29.84 "Hg10 mi
2:53 AM66 °FClear.5 mph90%29.85 "Hg10 mi
1:53 AM67 °FLight rain. Partly cloudy.13 mph87%29.85 "Hg10 mi
12:53 AM70 °FPassing clouds.9 mph68%29.88 "Hg10 mi
11:53 PM
Sep 22
71 °FClear.13 mph66%29.88 "Hg10 mi
10:53 PM74 °FClear.14 mph57%29.89 "Hg10 mi
9:53 PM77 °FPassing clouds.14 mph45%29.86 "Hg10 mi
8:53 PM76 °FClear.8 mph52%29.85 "Hg10 mi
7:53 PM76 °FSunny.No wind50%29.82 "Hg10 mi
6:53 PM78 °FSunny.7 mph48%29.81 "Hg10 mi
5:53 PM82 °FSunny.6 mph43%29.81 "Hg10 mi
4:53 PM83 °FSunny.12 mph38%29.82 "Hg10 mi
3:53 PM85 °FSunny.7 mph35%29.82 "Hg10 mi
2:53 PM84 °FSunny.3 mph35%29.84 "Hg10 mi
1:53 PM80 °FSunny.5 mph39%29.86 "Hg10 mi
12:53 PM80 °FPassing clouds.14 mph41%29.87 "Hg10 mi
11:53 AM78 °FSunny.13 mph43%29.88 "Hg10 mi
10:53 AM79 °FSunny.14 mph42%29.88 "Hg10 mi
9:53 AM77 °FSunny.10 mph44%29.88 "Hg10 mi
8:53 AM75 °FSunny.15 mph48%29.87 "Hg10 mi
7:53 AM71 °FSunny.12 mph53%29.85 "Hg10 mi
6:53 AM64 °FClear.5 mph68%29.83 "Hg10 mi
5:53 AM61 °FClear.6 mph72%29.83 "Hg10 mi
Weather by CustomWeather, © 2014

See weather overviewHow to use our weather pages